User: anonymous   Login
Location: Unspecified
(0.0000°N, 0.0000°E)
Time: 10:28:51
(UTC+00:00)
Language:

EUCROPIS - Orbit

View from above orbital plane
View from above orbital plane
View from above satellite
View from above satellite

Ground track
Ground track

The orbit data is extracted from the following two-line orbital elements,

1 43807U 18099BB  19008.44891204 +.00000265  00000-0 +24459-4 0    03
2 43807  97.7632  82.2630 0014190 139.1499  18.3395 14.95270182  5339
Epoch (UTC): 08 January 2019 10:46:26
Eccentricity: 0.0014190
inclination: 97.7632°
perigee height: 571 km
apogee height: 591 km
right ascension of ascending node: 82.2630°
argument of perigee: 139.1499°
revolutions per day: 14.95270182
mean anomaly at epoch: 18.3395°
orbit number at epoch: 533

The dashed part of the orbit path shows where the satellite is in the earth's shadow,  

DLR